User: anonymous   Login
Location: Unspecified
(0.0000°N, 0.0000°E)
Time: 23:15:14
(UTC+00:00)
Language:

AIST 2 - Orbit

View from above orbital plane
View from above orbital plane
View from above satellite
View from above satellite

Ground track
Ground track

The orbit data is extracted from the following two-line orbital elements,

1 39133U 13015D   18051.52573684  .00000149  00000-0  23120-4 0  9990
2 39133  64.8718 220.6105 0032203 240.5933 119.1971 15.04489160265669
Epoch (UTC): 20 February 2018 12:37:03
Eccentricity: 0.0032203
inclination: 64.8718°
perigee height: 531 km
apogee height: 575 km
right ascension of ascending node: 220.6105°
argument of perigee: 240.5933°
revolutions per day: 15.04489160
mean anomaly at epoch: 119.1971°
orbit number at epoch: 26566

The dashed part of the orbit path shows where the satellite is in the earth's shadow,  

DLR